Weather History for Kaneohe MCBH, HI

Change the Weather History Date:

Tuesday, September 10, 2013

  Actual Average Record
Temperature  
Mean Temperature 80 °F -  
Max Temperature 86 °F 81 °F 86 °F (2005)
Min Temperature 75 °F 72 °F 46 °F (1998)
Cooling Degree Days 16    
Growing Degree Days 30 (Base 50)    
Moisture  
Dew Point 69 °F    
Average Humidity 70    
Maximum Humidity 87    
Minimum Humidity 58    
Precipitation  
Precipitation 0.00 in - - ()
Sea Level Pressure  
Sea Level Pressure 30.04 in    
Wind  
Wind Speed 7 mph (ENE)    
Max Wind Speed 13 mph    
Max Gust Speed 18 mph    
Visibility 9 miles    
Events Rain    
Averages and records for this station are not official NWS values.
T = Trace of Precipitation, MM = Missing Value Source: NWS Daily Summary

Daily Weather History Graph

Daily Weather History Graph

Search for Another Location

Airport:

Trip Planner

Search our weather history database for the weather conditions in past years. The results will help you decide how hot, cold, wet, or windy it might be!

Date:

Astronomy

Sep. 10, 2013 Rise Set
Actual Time 6:16 AM HST 6:38 PM HST
Civil Twilight 5:54 AM HST 7:00 PM HST
Nautical Twilight 5:28 AM HST 7:26 PM HST
Astronomical Twilight 5:02 AM HST 7:53 PM HST
Moon 11:10 AM HST (9/10) 10:36 PM HST (9/10)
Length of Visible Light 13h 06m
Length of Day
12h 21m
Waxing Crescent, 30% of the Moon is Illuminated
Sep 10
Waxing Crescent
Sep 12
First Quarter
Sep 19
Full
Sep 26
Last Quarter
Oct 4
New

Hourly Weather History & Observations

Time (HST) Temp. Heat Index Dew Point Humidity Pressure Visibility Wind Dir Wind Speed Gust Speed Precip Events Conditions
12:57 AM 77.0 °F - 68.0 °F 74% 30.07 in 10.0 mi ESE 5.8 mph - N/A   Scattered Clouds
1:57 AM 75.2 °F - 68.0 °F 78% 30.05 in 10.0 mi East 6.9 mph - N/A   Clear
2:57 AM 75.2 °F - 66.9 °F 75% 30.03 in 10.0 mi East 5.8 mph - N/A   Partly Cloudy
3:57 AM 75.2 °F - 68.0 °F 78% 30.02 in 10.0 mi Variable 4.6 mph - N/A   Clear
4:57 AM 77.0 °F - 68.0 °F 74% 30.03 in 10.0 mi ENE 5.8 mph - N/A   Partly Cloudy
5:57 AM 77.0 °F - 68.0 °F 74% 30.04 in 10.0 mi ENE 6.9 mph - N/A   Clear
6:57 AM 77.0 °F - 68.0 °F 74% 30.05 in 10.0 mi ENE 3.5 mph - N/A   Mostly Cloudy
7:57 AM 78.8 °F - 69.1 °F 72% 30.06 in 10.0 mi NE 8.1 mph - N/A   Scattered Clouds
8:57 AM 80.6 °F 83.2 °F 68.0 °F 65% 30.06 in 10.0 mi NE 8.1 mph - N/A Rain Light Rain
9:57 AM 80.6 °F 83.9 °F 70.0 °F 70% 30.06 in 10.0 mi ENE 9.2 mph - N/A   Scattered Clouds
10:57 AM 82.4 °F 86.3 °F 70.0 °F 66% 30.06 in 10.0 mi NE 11.5 mph - N/A   Mostly Cloudy
11:57 AM 84.2 °F 89.3 °F 71.1 °F 65% 30.04 in 10.0 mi ENE 9.2 mph - N/A   Mostly Cloudy
12:04 PM 86.0 °F 90.4 °F 69.8 °F 58% 30.05 in 6.2 mi ENE 10.4 mph 18.4 mph N/A   Partly Cloudy
12:57 PM 86.0 °F 90.7 °F 70.0 °F 59% 30.03 in 10.0 mi ENE 10.4 mph - N/A   Partly Cloudy
1:57 PM 86.0 °F 90.7 °F 70.0 °F 59% 30.01 in 10.0 mi NE 9.2 mph - N/A   Mostly Cloudy
2:57 PM 86.0 °F 91.5 °F 71.1 °F 61% 30.00 in 10.0 mi NE 12.7 mph 17.3 mph N/A   Partly Cloudy
3:57 PM 84.2 °F 88.4 °F 70.0 °F 62% 30.00 in 10.0 mi ENE 9.2 mph - N/A   Partly Cloudy
4:57 PM 84.2 °F 88.4 °F 70.0 °F 62% 30.00 in 10.0 mi ENE 8.1 mph 16.1 mph N/A   Mostly Cloudy
5:46 PM 84.2 °F 88.4 °F 69.8 °F 62% 30.03 in 6.2 mi ENE 8.1 mph - N/A   Partly Cloudy
5:57 PM 84.2 °F 88.4 °F 70.0 °F 62% 30.02 in 10.0 mi ENE 8.1 mph - N/A   Partly Cloudy
6:18 PM 82.4 °F 86.3 °F 69.8 °F 66% 30.03 in 6.2 mi ENE 5.8 mph - N/A   Mostly Cloudy
6:41 PM 82.4 °F 86.3 °F 69.8 °F 66% 30.04 in 6.2 mi East 5.8 mph - N/A   Scattered Clouds
6:57 PM 82.4 °F 85.8 °F 69.1 °F 64% 30.04 in 10.0 mi ENE 5.8 mph - N/A   Partly Cloudy
7:57 PM 78.8 °F - 68.0 °F 69% 30.05 in 10.0 mi ENE 6.9 mph - N/A   Partly Cloudy
8:57 PM 77.0 °F - 69.1 °F 76% 30.07 in 10.0 mi ENE 8.1 mph - N/A   Scattered Clouds
9:11 PM 75.2 °F - 69.8 °F 83% 30.09 in 6.2 mi NE 6.9 mph - N/A   Mostly Cloudy
9:39 PM 75.2 °F - 69.8 °F 83% 30.09 in 6.2 mi ENE 4.6 mph - N/A   Mostly Cloudy
9:57 PM 75.2 °F - 69.1 °F 81% 30.08 in 10.0 mi ENE 4.6 mph - N/A   Mostly Cloudy
10:57 PM 75.2 °F - 71.1 °F 87% 30.07 in 10.0 mi ENE 6.9 mph - N/A   Mostly Cloudy
11:57 PM 75.2 °F - 71.1 °F 87% 30.06 in 10.0 mi ENE 6.9 mph - N/A   Partly Cloudy